Regional Weather Roundup
Issued by NWS Albany, NY

Home | Current Version | Previous Version | Graphics & Text | Print | Product List | Glossary On
Versions: 1 2 3 4 5 6 7 8 9 10 11 12 13 14 15 16 17 18 19 20 21 22 23 24 25 26 27 28 29 30 31 32 33 34 35 36 37 38 39 40 41 42 43 44 45 46 47 48
000
ASUS41 KALY 210310
RWRALY

NEW YORK STATE HOURLY WEATHER ROUNDUP
NATIONAL WEATHER SERVICE ALBANY NY
1000 PM EST SAT DEC 20 2014

NOTE: "FAIR" INDICATES FEW OR NO CLOUDS BELOW 12,000 FEET WITH NO
SIGNIFICANT WEATHER AND/OR NO OBSTRUCTIONS TO VISIBILITY.

NYZ032-033-038>043-046>054-057>066-NYZ062>081-210400-
EAST


CITY           SKY/WX    TMP DP  RH WIND       PRES   REMARKS
ALBANY         CLOUDY    28  19  69 N3        30.32R
GLENS FALLS    CLEAR     17  13  84 CALM      30.32S
POUGHKEEPSIE   CLOUDY    30  20  66 CALM      30.31R
MONTGOMERY     CLOUDY    28  23  81 NE3       30.28S
WHITE PLAINS   CLOUDY    30  21  69 NW3       30.27R
ISLIP          CLOUDY    33  23  66 W3        30.28R
NEW YORK CITY  CLOUDY    33  23  66 N6        30.30R WCI  28
CENTRAL PARK   CLOUDY    32  20  61 VRB3      30.31S
$$

NYZ005>009-017-018-044>046-055-056-210400-
CENTRAL


CITY           SKY/WX    TMP DP  RH WIND       PRES   REMARKS
FULTON         CLOUDY    24  19  81 E3        30.29S
SYRACUSE       MOCLDY    22  21  96 CALM      30.30R
ROME           CLOUDY    25  19  78 E3        30.32S
ELMIRA         CLOUDY    29  21  72 W3        30.26R
BINGHAMTON     CLOUDY    25  19  78 CALM      30.20F
MONTICELLO     CLOUDY    25  21  86 N6        30.23F WCI  18
$$

NYZ026>034-041>043-210400-
NORTH


CITY           SKY/WX    TMP DP  RH WIND       PRES   REMARKS
WATERTOWN      CLEAR     18  12  77 NE5       30.30S WCI  11
FORT DRUM      NOT AVBL
MASSENA        MOCLDY     9   7  92 CALM      30.36R FOG
SARANAC LAKE   CLEAR      7   3  84 CALM      30.20R
PLATTSBURGH    CLOUDY    15  12  88 N5        30.34S WCI   8
$$

NYZ001>004-010>016-019>021-210400-
WEST


CITY           SKY/WX    TMP DP  RH WIND       PRES   REMARKS
NIAGARA FALLS  CLOUDY    26  22  84 CALM      30.27S
BUFFALO        MOCLDY    28  22  78 CALM      30.27S
DUNKIRK        CLOUDY    30  23  75 S7        30.28S WCI  23
JAMESTOWN      CLOUDY    25  19  80 S3        30.22R
WELLSVILLE     CLOUDY    24  19  81 CALM      30.20S
ROCHESTER      CLOUDY    30  21  69 CALM      30.29R
PENN YAN       CLOUDY    28  21  75 CALM      30.26S
$$

             KEY
       WCI = WIND CHILL INDEX
       VSB = VISIBILITY
       HX  = HEAT INDEX
$$


USA.gov is the U.S. government's official web portal to all federal, state and local government web resources and services.